sat.trackr.live / text

‹ back to catalog

UNKNOWN

NORAD 87737

UNKNOWN UNKNOWN UNKNOWN

§ Identity

Operator
Country
Launch date
Launch site
Launch vehicle
Mass (kg)
RCS (m²)

External: N2YO · Heavens-Above

§ Orbital elements

Epoch: 2026-05-22T09:17:52.090080Z

Period
104.93 min
Inclination
99.3533°
Eccentricity
0.0133802
Mean motion
13.72367602 rev/d
Perigee alt
892.5 km
Apogee alt
1,089.7 km
Semi-major
7,369.2 km
B*
5.1701e-5
RAAN
15.5269°
Arg perigee
130.4820°
Mean anomaly
230.8081°
Rev number
62,589

§ Raw data

UNKNOWN1 87737U          26142.38740845  .00000008  00000+0  51701-4 0  99912 87737  99.3533  15.5269 0133802 130.4820 230.8081 13.72367602625898

JSON: /api/v1/satellites/87737 · /tle

For live sub-satellite position, see the globe view (requires WebGL).

§ Visibility from observer

Set your observer location to see the next 7 days of passes ≥ 10°. The values pass through the URL so the page stays shareable.

No JS? Fill the form by hand. The geolocation button needs JavaScript.